Regional Weather Roundup
Issued by NWS Newport/Morehead, NC

Home | Current Version | Previous Version | Text Only | Print | Product List | Glossary On
Versions: 1 2 3 4 5 6 7 8 9 10 11 12 13 14 15 16 17 18 19 20 21 22 23 24 25 26 27 28 29 30 31 32 33 34 35 36 37 38 39 40 41 42 43 44 45 46 47 48 49 50
000
ASUS42 KMHX 162122
RWRMHX
WEATHER ROUNDUP FOR EASTERN NORTH CAROLINA
NATIONAL WEATHER SERVICE NEWPORT/MOREHEAD CITY NC
500 PM EDT TUE SEP 16 2014

NOTE: "FAIR" INDICATES FEW OR NO CLOUDS BELOW 12,000 FEET
WITH NO SIGNIFICANT WEATHER AND/OR OBSTRUCTIONS TO VISIBILITY

NCZ015>017-031-032-045>047-102-103-162200-
NORTH COAST

CITY           SKY/WX    TMP DP  RH WIND       PRES   REMARKS
EDENTON        SUNNY     82  64  55 N6        29.95F
ELIZABETH CITY CLOUDY    79  64  60 E8        29.96S
KITTY HAWK     PTCLDY    78  67  68 N6        29.96R
MANTEO         MOSUNNY   78  67  68 NE10      29.96S

$$

NCZ045>047-081-094-103-104-162200-
CENTRAL COAST

CITY           SKY/WX    TMP DP  RH WIND       PRES   REMARKS
FRISCO         SUNNY     78  69  73 SW5       29.95F
SWANQUARTER      N/A     82 N/A N/A SW8       29.91S

$$

NCZ095-097-098-100-101-162200-
SOUTHERN COAST

CITY           SKY/WX    TMP DP  RH WIND       PRES   REMARKS
BEAUFORT       SUNNY     80  72  76 SW8       29.95F
CEDAR ISLAND     N/A     82 N/A N/A SE6G13    30.00R
JACKSONVILLE   SUNNY     83  72  69 S7        29.94F
NEWPORT        NOT AVBL
PINEY ISLAND   PTCLDY    83  71  67 SE8       29.94F
WILMINGTON     MOSUNNY   80  71  74 SE7       29.95F


$$

NCZ011>013-027>030-043-044-078>080-089-090>093-098-162200-
COASTAL PLAIN

CITY           SKY/WX    TMP DP  RH WIND       PRES   REMARKS
AHOSKIE        MOSUNNY   76  67  75 CALM      29.96F
CLINTON        MOSUNNY   83  69  62 CALM      29.96F
ELIZABETHTOWN  SUNNY     84  65  53 CALM      29.96S
GOLDSBORO      PTSUNNY   82  68  62 CALM      29.94F
GREENVILLE     MOSUNNY   82  64  54 CALM      29.98S
HAVELOCK       PTSUNNY   83  72  69 S8        29.95F
KENANSVILLE    SUNNY     83  64  52 CALM      29.97S
KINSTON        MOSUNNY   82  64  54 NW5       29.96F
NEW BERN       SUNNY     87  65  47 W6        29.96S
RICHLANDS      SUNNY     82  66  57 CALM      29.95S
ROANOKE RAPIDS NOT AVBL
ROCKY MOUNT    CLOUDY    80  63  55 NW5       29.97S
WASHINGTON     MOSUNNY   82  65  57 CALM      29.96S
WHITEVILLE     SUNNY     83  67  58 NE5       29.95S

$$

AMZ130-135-150-152-154-156-158-170-250-252-270-ANZ085-086-088-633-658-670-162200-
MARINE OBSERVATIONS

STATION/POSITION TIME  TEMP    WIND        PRES    WAVE   SWELL
                       AIR SEA DIR/SP/G            HT/PER HT/PER
                 (UTC) (F)     (DEG/KT/KT) (MB)    (FT/S) (FT/S)
CHESAPEAKE LIGHT 2100   74      30/  5/  5 1015.5
BUOY 44014       2100   74 79  330/ 14/ 17 1014.1    2/13   2/13
DUCK             2100   76 77   30/ 10/ 11 1014.0
2E DUCK          2100                        N/A     2/13   2/13
OREGON INLET     2100   76 76   20/ 10/ 11 1014.5
BUOY 44095       2100      78                N/A     2/13   2/13
20E OREGON INLET NOT AVBL
HATTERAS CG      2100   80 78  210/  4/  5 1014.6
DIAMOND BUOY     2100   77     280/  2/  2 1014.3    2/ 8   2/ 8
CAPE LOOKOUT     2100   78     180/  7/  8 1014.2
BEAUFORT LAB     2100   79 79  200/  7/  9 1013.8
30 SE NEW RIVER  2100   78 82  170/  4/  6 1014.8    2/ 8   2/ 8
5 SE WRIGHTSVILL 2100   76 82  150/  6/  8   N/A
BUOY 41002       2049   79 83  320/  8/ 12 1015.3    3/ 7   3/ 7
BUOY 41004       2100   80 84  340/  4/  6 1013.9    1/ 8   2/ 8

$$



USA.gov is the U.S. government's official web portal to all federal, state and local government web resources and services.